Location: Katwijk
(52.2000°N, 4.4170°E)
Time: 17:09:57
(UTC+01:00)

ISS - Visible Passes

Search period start: 24 November 2014 00:00
Search period end: 04 December 2014 00:00
Orbit: 407 x 417 km, 51.6° (Epoch: 24 November)

Date Brightness Start Highest point End Pass type
(mag) Time Alt. Az. Time Alt. Az. Time Alt. Az.
24 Nov -2.4 05:53:32 43° SSE 05:53:32 43° SSE 05:56:08 10° ESE visible
24 Nov -1.1 07:27:05 10° WSW 07:29:03 15° SW 07:31:01 10° S visible
25 Nov -0.2 05:05:56 15° ESE 05:05:56 15° ESE 05:06:33 10° ESE visible
25 Nov -1.7 06:38:46 20° SW 06:39:32 22° SSW 06:42:08 10° SSE visible
26 Nov -1.4 05:51:10 23° S 05:51:10 23° S 05:52:52 10° SE visible
27 Nov -0.8 06:36:25 11° SW 06:36:25 11° SW 06:37:20 10° SSW visible
